Wind_Speed
16 14 16 16 16 13 11 11 10 10 10 10 11 12 13 14 16 16 3 3 3 2 6 5 3 2 2 1 2 2 1 1 1 3 4 3 2 3 1 2 4 5 5 3 3 3 5 2 4 7 6 1 4 5
14 13 15 15 14 12 11 10 10 9 9 9 11 12 12 13 15 13 3 5 10 3 6 7 19 22 13 7 3 2 2 4 4 3 3 1 0 1 2 2 3 1 4 5 7 6 3 3 3 2 5 5 6 7
13 12 13 13 12 12 10 10 10 9 10 10 11 12 12 13 12 12 9 9 4 2 5 4 7 5 11 26 24 4 3 3 2 0 4 2 2 3 3 5 2 1 2 3 3 1 3 2 2 1 3 3 6 11
12 12 11 10 10 10 10 10 10 9 10 10 10 11 12 12 12 12 9 9 4 0 2 6 7 9 6 10 18 26 4 2 3 3 2 3 3 4 4 2 2 4 4 5 2 3 2 3 1 4 7 11 13 10
13 13 12 11 11 11 11 10 9 9 9 9 10 11 12 13 14 16 16 7 10 1 3 5 18 7 7 10 15 24 8 2 1 2 1 3 2 3 2 2 2 4 6 4 5 8 6 5 8 8 12 12 12 17
12 12 12 11 10 11 10 8 8 8 9 10 10 11 12 13 14 7 2 1 7 6 1 4 6 5 8 2 11 7 5 3 3 4 2 2 2 3 3 3 5 4 3 2 2 3 2 6 8 4 10 11 9 11
10 10 10 10 10 10 9 9 9 9 11 11 11 12 13 12 12 3 3 1 11 2 0 5 6 4 5 1 2 3 3 2 3 1 2 2 2 3 3 4 6 5 5 3 5 9 5 4 6 10 11 11 17 15
9 8 8 8 8 8 8 8 8 9 10 11 12 13 14 14 13 6 3 10 17 2 1 2 5 5 6 2 2 2 2 2 4 2 0 1 2 3 1 7 5 0 5 4 6 2 5 11 11 10 15 14 12 10
7 7 7 7 6 5 6 7 8 8 9 11 13 14 5 3 2 3 6 3 20 2 2 2 2 3 4 2 1 3 2 1 1 1 2 3 0 3 7 8 6 8 6 9 6 7 12 14 14 13 12 10 12 8
6 6 6 5 6 6 6 5 6 7 8 9 4 1 2 3 1 2 1 1 0 2 0 3 1 4 2 2 2 3 3 2 1 3 2 2 4 5 7 8 6 7 10 12 12 6 9 9 14 14 12 10 11 12
4 5 6 7 6 4 2 3 5 6 3 1 1 2 2 1 4 1 1 1 1 2 3 4 5 2 2 1 2 1 3 1 1 4 3 1 4 6 8 8 7 9 11 13 8 15 19 20 15 12 9 8 13 15
8 7 6 4 2 1 2 4 4 1 1 2 4 4 3 1 2 1 3 1 3 4 2 3 4 5 3 1 2 1 2 2 4 2 3 2 5 6 3 5 7 9 8 4 4 11 10 11 16 11 11 13 15 17
8 6 5 3 3 2 3 4 3 2 3 1 1 1 2 1 2 4 4 3 2 2 1 3 4 3 2 2 1 2 3 5 2 2 4 5 4 4 5 3 4 6 8 8 8 12 17 16 20 17 15 16 22 21
6 6 5 5 5 5 4 4 2 1 1 2 2 2 4 3 4 4 2 2 4 2 4 2 3 3 2 2 2 4 4 3 2 1 5 3 5 4 4 3 7 8 10 11 10 11 13 16 15 20 22 24 23 20
5 4 3 6 7 6 5 3 1 2 1 2 2 4 4 2 2 3 2 2 2 1 2 3 3 2 1 2 3 2 2 3 4 5 4 5 4 4 4 4 7 9 10 10 11 11 14 18 18 16 21 22 22 20
2 3 6 9 9 7 5 1 1 1 1 2 2 0 1 1 3 3 2 3 2 3 1 2 2 1 5 3 3 5 5 4 4 4 4 2 2 4 4 6 6 7 8 10 14 17 19 19 18 20 23 21 19 18
2 2 6 9 9 6 3 1 0 1 1 2 1 0 2 2 4 3 2 2 3 3 3 2 3 1 1 1 2 4 5 4 4 4 3 3 5 6 7 8 8 12 12 16 19 19 18 24 28 24 12 16 16 14
3 4 6 11 10 4 3 3 1 1 2 1 2 0 0 2 2 4 3 2 3 3 2 2 3 2 3 2 2 3 3 4 3 4 3 3 6 6 8 10 11 16 16 17 20 22 23 22 17 15 21 19 15 12
5 5 6 9 9 3 2 3 2 1 2 1 2 2 2 3 3 4 4 3 3 4 3 1 4 3 3 2 1 1 3 3 3 3 3 2 9 10 11 14 15 15 19 21 21 17 20 25 21 25 23 19 17 15
5 5 5 4 5 3 1 1 1 2 2 2 1 2 3 3 2 2 3 2 1 1 3 3 3 2 2 2 0 2 3 5 3 1 2 1 7 13 13 16 13 17 17 16 17 22 19 17 18 21 22 21 17 13
3 2 3 4 3 3 1 1 2 2 3 2 2 2 3 1 3 3 3 3 2 3 3 4 3 4 3 3 6 3 5 4 3 3 2 3 4 11 12 14 19 18 13 13 11 12 17 17 24 23 22 20 18 14
1 1 3 3 2 1 1 3 2 3 2 3 3 2 3 3 3 3 2 2 3 4 4 4 3 2 3 1 2 4 10 7 1 5 9 13 6 5 6 13 14 7 11 15 16 16 18 24 23 24 22 16 12 10
1 0 1 1 1 2 3 3 2 3 3 2 2 2 3 3 3 2 2 3 4 4 5 5 6 8 5 5 1 1 4 4 1 2 9 8 5 15 15 16 19 16 7 14 23 22 22 22 20 21 17 13 10 8
1 1 1 2 3 2 2 3 3 3 2 3 3 3 3 3 0 1 4 4 4 3 4 7 5 4 3 3 2 3 4 4 11 11 6 4 4 5 17 19 23 22 24 25 24 20 19 19 19 18 16 16 14 12
2 2 2 4 2 3 3 3 4 3 4 4 2 3 3 2 2 3 4 4 2 4 7 6 4 6 8 4 2 4 9 7 6 3 4 6 3 5 9 11 12 16 17 16 18 18 16 15 16 16 18 17 14 15
4 4 4 3 3 4 4 3 4 5 4 4 4 3 1 2 2 5 3 2 2 2 3 5 7 5 5 5 4 4 8 12 14 5 6 12 16 12 8 7 5 9 18 19 18 18 17 16 17 16 15 14 14 12
3 4 5 3 2 2 3 4 2 2 3 5 2 3 3 4 5 4 2 1 2 7 15 16 15 8 7 7 16 11 15 15 13 10 6 12 14 20 11 13 9 11 14 23 20 20 21 20 20 16 11 10 13 16
4 3 5 3 4 4 3 3 3 4 4 3 3 4 3 4 3 2 2 9 18 18 19 18 13 20 19 20 19 16 17 16 10 10 13 11 15 17 14 11 9 7 9 15 18 18 19 20 15 14 13 11 11 11
4 3 4 4 5 5 6 5 4 3 3 1 3 2 3 2 2 2 9 17 21 16 8 10 7 15 14 13 10 17 20 20 11 6 8 3 2 11 15 13 12 10 9 13 14 14 16 18 15 14 14 15 11 11
5 5 4 4 4 4 4 5 3 5 3 4 3 3 4 6 18 23 16 11 8 6 4 10 7 15 6 10 5 4 5 13 18 13 8 6 8 10 17 15 13 11 10 13 14 15 15 13 11 13 14 10 7 5
2 4 3 3 3 4 5 4 4 3 3 3 3 4 4 3 8 16 15 15 8 4 3 3 9 11 6 7 10 5 4 4 5 7 9 13 13 14 16 15 15 16 16 16 18 18 17 18 16 14 14 11 9 6
3 5 3 3 4 4 1 3 3 3 2 4 4 4 3 3 3 3 5 13 9 3 2 5 7 3 8 4 7 4 4 0 4 8 9 14 11 10 12 14 14 18 20 18 18 19 18 17 15 13 11 10 10 8
2 2 4 3 2 3 2 2 3 3 4 3 3 4 4 3 4 2 4 17 14 9 8 7 14 11 9 3 5 6 5 3 8 10 8 8 9 10 12 15 20 23 22 19 18 19 17 14 12 10 11 11 9 11
Wind_Direction
262 276 285 285 286 269 253 269 279 293 299 309 323 331 341 349 353 358 306 37 18 266 278 230 254 197 18 30 101 278 161 234 71 145 228 222 163 243 75 177 198 148 132 138 103 108 254 163 118 151 206 248 150 115
260 274 280 283 278 265 253 263 270 279 283 311 319 326 334 342 348 358 339 315 311 194 257 279 264 260 240 192 126 332 220 221 197 126 148 155 206 39 114 252 25 291 175 172 174 203 227 271 258 326 156 163 169 125
254 265 274 279 265 250 250 256 265 268 279 292 301 317 325 332 342 343 324 322 322 326 298 346 255 295 252 228 226 175 271 227 276 282 148 154 122 130 164 240 155 261 152 106 97 272 300 348 325 144 148 135 114 126
253 260 265 260 251 243 243 253 266 265 270 283 295 307 316 322 328 325 310 293 281 191 284 282 322 292 283 212 203 209 158 94 103 81 103 141 144 181 194 211 187 212 120 130 315 297 315 288 206 139 103 109 110 99
254 260 260 250 243 238 242 252 265 264 267 280 294 305 312 316 317 316 297 275 215 129 258 286 311 296 295 249 211 203 204 104 27 332 88 243 147 144 95 88 278 181 169 151 220 203 165 217 154 144 137 136 134 125
252 251 258 247 233 235 239 248 265 263 266 280 292 302 309 314 321 328 338 206 176 195 354 309 305 297 317 188 163 161 163 156 186 178 187 262 279 97 113 186 264 224 196 154 250 138 82 115 108 92 120 120 109 108
251 247 238 226 226 229 240 248 255 258 265 282 293 298 301 308 307 230 221 234 163 144 67 308 315 285 306 116 82 85 74 187 158 123 233 177 159 110 103 184 246 237 226 199 140 110 63 181 158 121 116 107 102 97
242 232 224 220 224 234 243 249 249 259 275 286 292 295 296 294 288 287 12 217 213 304 64 276 276 331 1 358 88 9 98 34 23 170 282 97 24 67 235 251 271 309 84 106 186 332 131 116 112 110 120 123 116 121
228 227 219 221 215 221 222 236 254 270 283 292 295 300 283 205 209 346 22 144 189 231 257 190 248 268 354 358 314 40 53 71 315 173 248 99 16 222 223 210 200 198 190 157 101 94 126 135 131 132 130 127 126 138
215 222 219 210 202 201 223 252 282 286 299 303 296 223 291 190 243 177 272 88 67 272 113 227 243 271 27 3 8 75 17 149 187 256 94 114 247 253 232 219 229 171 145 132 113 102 113 130 151 157 156 155 158 159
175 181 171 172 181 192 224 288 297 316 309 298 329 231 311 297 151 47 243 166 187 262 207 238 193 239 294 27 231 184 177 136 141 260 142 302 284 249 234 218 182 169 174 182 175 170 172 158 153 152 155 141 143 148
105 116 124 120 108 48 353 340 342 36 39 292 276 300 315 71 53 184 227 298 200 234 224 203 233 195 271 130 113 274 146 73 224 125 106 254 248 249 258 204 194 180 174 162 143 143 137 150 154 143 139 140 147 154
90 84 77 72 49 358 355 346 351 315 297 293 275 273 94 243 88 203 208 239 266 228 255 327 298 207 351 52 127 128 160 213 100 113 220 228 274 286 249 185 160 145 128 115 105 109 119 121 135 137 126 139 151 153
71 66 58 44 26 355 341 340 315 248 222 203 167 261 178 208 237 191 200 211 259 257 307 260 252 193 182 145 176 169 222 108 88 156 236 254 243 259 198 166 136 153 137 127 125 125 124 125 118 137 144 153 152 155
53 59 53 27 11 354 339 334 243 168 206 239 152 220 213 278 272 241 250 315 281 280 304 320 285 145 217 219 207 135 135 235 186 215 228 242 247 221 187 153 141 137 132 129 129 129 126 126 125 122 148 159 165 166
59 31 17 1 353 350 354 27 123 136 286 241 209 253 264 21 305 324 324 295 289 295 247 151 262 206 229 169 154 212 139 194 231 216 238 261 245 181 144 126 121 116 123 126 128 130 129 129 133 140 152 158 163 170
122 80 11 5 355 351 6 7 314 144 202 252 235 113 182 245 240 278 315 286 312 339 3 304 264 229 53 86 243 172 193 215 222 242 249 219 176 158 134 120 122 126 125 126 124 127 125 139 143 141 140 162 166 175
69 34 18 9 357 359 3 15 39 64 267 274 257 253 253 243 276 280 267 311 348 354 325 16 293 271 203 204 262 318 328 294 263 294 295 144 132 139 139 135 131 132 129 129 133 134 138 140 147 159 166 168 169 176
351 353 3 5 357 359 8 11 27 272 266 273 231 228 227 250 243 256 274 278 264 256 285 200 254 239 241 215 199 273 297 290 292 317 324 175 142 138 133 130 132 134 139 144 146 150 159 164 170 171 172 175 185 197
333 339 350 354 6 22 357 324 357 285 272 261 272 261 224 229 234 227 254 255 252 272 237 205 240 266 246 310 282 262 274 292 256 231 61 101 140 138 150 152 154 145 133 137 144 156 158 166 179 181 184 190 197 205
328 3 359 2 25 49 27 315 266 245 299 281 271 255 264 235 236 215 232 185 196 214 234 226 216 246 232 240 267 271 283 281 258 215 224 181 165 142 136 143 146 149 148 156 162 165 166 180 187 188 191 197 209 221
350 35 359 12 38 355 283 236 266 307 266 253 285 224 271 275 245 215 169 170 229 230 205 224 238 230 243 234 289 348 303 305 68 92 61 130 147 145 148 153 145 158 166 176 175 181 190 193 190 194 199 203 213 232
144 351 329 324 304 197 267 167 246 218 251 250 243 234 236 238 219 110 252 219 243 230 220 221 232 233 228 271 255 71 322 331 200 61 40 309 224 149 147 162 171 172 169 187 192 190 191 190 190 196 202 204 212 201
183 273 202 252 200 260 250 227 221 249 237 239 218 267 243 239 138 215 240 240 235 218 201 226 212 246 278 248 207 189 201 165 92 62 34 271 258 174 169 174 191 192 193 193 193 197 195 190 188 192 197 203 210 212
250 219 189 245 216 212 234 219 213 205 248 220 255 258 256 206 245 232 228 261 245 233 231 222 213 212 225 230 212 195 184 159 115 132 317 329 227 143 130 163 185 202 200 185 183 191 196 202 200 199 205 206 216 224
248 213 213 219 205 222 208 229 210 220 208 208 238 248 200 165 241 251 243 255 260 243 247 223 221 212 226 198 190 201 194 173 168 154 160 268 219 210 176 175 174 212 210 205 191 185 194 198 199 196 203 214 225 227
246 238 212 212 250 272 252 259 199 231 235 212 237 210 188 220 229 248 295 299 301 297 289 278 215 202 199 203 218 217 186 181 169 148 153 240 247 226 227 188 199 216 205 201 201 195 189 185 184 187 192 199 200 199
248 267 230 200 207 201 243 251 236 228 215 216 253 215 224 224 239 260 266 290 292 308 319 339 225 202 199 212 219 194 187 194 199 210 232 259 255 237 232 227 231 236 218 200 196 192 196 188 179 184 185 190 199 212
241 216 199 241 224 224 215 217 228 239 169 39 301 254 267 288 246 228 274 285 304 314 330 345 17 181 195 199 194 194 194 194 161 179 205 202 171 212 203 201 199 189 175 179 182 185 189 193 203 197 199 198 204 228
241 183 238 219 199 224 232 194 212 224 214 200 227 233 252 265 271 278 274 278 288 283 309 340 353 79 80 114 83 347 210 216 195 199 187 189 199 175 180 184 188 189 178 177 167 162 171 186 181 183 192 197 190 204
228 173 226 227 261 242 223 210 231 226 210 229 241 262 265 288 299 290 252 254 237 224 307 359 52 52 69 117 153 200 226 175 183 193 192 170 165 170 183 197 200 195 175 171 167 169 173 177 180 183 195 203 216 236
191 207 181 227 259 265 215 202 211 198 245 211 234 218 232 232 245 267 219 156 162 116 33 329 338 297 164 241 261 226 237 277 203 178 183 174 171 203 206 197 190 178 174 166 169 172 171 171 174 187 203 220 218 217
267 213 216 259 295 301 261 236 239 196 198 211 231 199 200 224 255 228 166 195 157 155 216 216 222 239 289 302 281 219 179 214 229 193 179 180 187 199 194 181 173 169 161 168 180 182 179 183 195 219 231 225 220 208
Height
775 776 776 776 776 775 777 778 779 779 778 777 776 775 773 771 768 766 764 764 765 764 747 736 733 734 735 737 740 737 739 734 743 762 769 755 754 748 745 740 742 750 759 770 776 777 771 733 732 749 745 740 739 743
770 771 772 772 772 772 773 775 776 776 776 775 775 773 772 771 768 766 764 763 762 763 745 733 727 726 729 731 736 739 738 737 730 743 747 752 749 752 755 755 736 748 741 754 756 759 739 736 733 730 733 736 739 743
765 766 767 767 767 769 770 772 773 773 773 773 773 771 770 769 768 766 765 762 761 760 743 733 719 715 717 720 726 739 731 724 727 724 738 745 745 749 754 752 738 733 734 747 743 737 736 733 733 732 732 735 738 741
761 762 762 763 764 765 767 769 770 770 770 770 770 769 768 767 766 765 764 762 763 763 760 730 715 712 711 713 715 718 720 723 724 728 736 741 740 738 748 744 744 736 733 748 750 740 734 731 731 733 736 737 742 748
757 758 759 760 761 762 764 766 767 767 768 768 767 767 766 765 763 761 758 757 758 763 758 739 717 707 707 706 708 713 718 722 728 730 735 736 733 736 743 743 740 730 736 743 744 726 726 726 730 734 736 739 744 747
754 755 756 757 758 760 761 763 764 765 765 765 765 764 763 762 760 758 757 757 756 759 760 751 720 710 706 704 706 710 714 721 727 726 727 730 723 728 741 747 724 720 720 720 721 720 727 727 731 734 740 743 747 751
751 752 753 754 756 757 759 760 761 762 763 763 762 761 760 759 759 759 759 758 757 758 759 752 736 712 707 706 709 713 716 720 721 724 726 726 727 728 741 743 719 717 715 716 720 721 731 730 734 737 741 747 751 757
749 749 750 752 754 755 756 757 758 759 760 760 759 758 757 755 754 752 751 752 756 758 759 757 740 724 709 712 714 714 718 720 723 727 728 725 730 735 739 726 720 716 716 718 721 718 718 726 734 740 744 749 755 762
746 748 749 750 751 753 754 755 756 756 757 756 755 754 753 752 752 751 750 748 753 759 756 756 751 735 715 720 718 717 719 729 730 729 729 728 739 737 723 717 715 713 715 719 722 722 724 728 735 742 746 753 757 764
745 747 748 749 750 752 753 753 754 754 754 753 753 753 751 749 750 751 751 753 755 753 755 753 745 738 725 724 723 723 728 730 731 727 727 733 733 717 712 708 708 711 712 713 723 733 734 737 738 742 747 752 755 762
745 746 747 749 750 750 751 752 752 752 751 752 752 752 749 748 749 751 752 754 754 751 749 743 741 736 723 726 727 727 731 735 735 730 729 738 733 713 697 700 702 704 706 704 703 708 714 720 734 742 749 753 758 763
747 748 748 749 750 751 751 750 750 751 751 752 752 750 749 749 752 751 752 751 750 743 738 736 731 733 726 723 725 729 726 734 733 728 732 734 720 701 698 699 700 701 704 709 711 713 720 726 732 738 746 753 759 764
749 750 751 751 751 751 751 750 750 751 751 751 751 749 748 751 756 750 745 744 744 734 731 731 730 725 725 725 726 726 726 732 726 730 728 721 703 698 699 699 700 703 706 710 715 718 722 728 735 740 748 755 759 764
751 751 752 752 752 752 751 750 750 751 751 751 748 752 749 748 746 742 741 739 733 731 730 730 730 726 726 726 724 720 720 721 728 730 721 710 698 695 697 698 700 703 705 711 716 721 725 731 738 743 748 754 759 765
753 753 753 753 752 752 751 750 750 750 750 748 746 755 744 742 740 737 735 735 730 728 729 728 726 726 725 721 725 718 718 719 722 722 713 700 696 696 698 699 701 704 708 713 717 723 728 734 740 747 752 757 761 766
755 755 755 754 752 751 750 749 749 749 749 749 748 745 746 746 743 738 735 734 730 728 723 725 721 720 715 718 714 713 717 719 712 708 699 696 695 697 699 701 704 706 710 715 720 725 730 737 743 749 755 760 764 768
756 756 756 754 752 751 750 749 749 749 749 745 744 747 749 749 749 741 736 731 729 726 727 727 720 708 716 717 715 713 712 704 699 697 694 693 695 698 700 703 706 709 714 719 723 730 735 741 746 752 758 762 766 769
756 757 756 754 752 751 750 750 749 749 749 747 750 751 749 748 746 743 737 732 731 729 728 726 729 718 713 711 713 713 709 704 699 696 693 691 694 698 699 703 707 711 716 721 726 732 738 743 747 752 757 761 765 768
757 757 756 755 754 753 753 752 751 750 747 746 748 749 748 745 741 738 736 733 732 729 729 726 727 719 711 712 711 711 711 708 702 696 696 694 694 697 701 706 709 713 717 722 728 733 737 741 746 751 756 761 763 766
757 757 756 755 755 754 753 753 753 752 748 748 745 746 745 741 736 734 733 732 730 729 725 721 716 712 711 707 708 709 707 703 700 697 698 699 697 699 703 706 711 715 720 726 730 734 740 745 748 752 755 758 761 763
757 757 756 756 756 756 757 755 753 751 749 747 744 741 738 735 733 732 730 728 730 727 721 711 708 706 706 706 706 703 702 700 698 696 695 699 698 700 705 709 713 717 721 726 731 736 740 743 746 750 753 756 758 761
757 757 757 757 757 757 757 755 755 753 751 745 745 740 738 734 726 723 724 726 724 716 712 709 704 702 703 701 702 699 698 696 694 693 695 697 699 702 705 709 714 719 723 725 729 733 736 740 744 747 751 754 756 757
758 758 758 758 758 757 757 754 753 748 744 736 734 730 732 728 724 723 723 719 713 704 700 700 698 698 699 699 700 700 699 694 692 688 694 704 701 697 702 708 711 715 720 724 727 730 734 738 742 745 749 752 753 754
758 759 758 756 756 754 752 750 748 743 737 735 731 726 722 722 720 719 716 710 700 696 696 695 694 696 696 696 698 697 697 695 691 693 699 704 705 700 700 704 709 711 713 717 723 728 732 736 739 742 745 748 749 751
759 758 759 755 751 753 747 741 737 737 736 728 726 722 720 716 712 710 710 701 693 690 688 688 690 690 691 692 693 693 693 691 688 696 700 702 703 704 703 706 709 712 715 718 723 727 731 735 738 739 741 744 746 748
756 753 753 746 743 743 738 733 734 726 729 726 721 720 719 717 713 703 701 688 685 686 684 683 682 685 686 686 688 689 688 689 692 691 692 698 702 700 699 703 707 711 713 717 720 725 729 732 734 736 738 740 742 744
751 745 743 740 739 735 733 729 726 727 722 720 712 711 709 707 699 696 688 685 684 680 677 674 673 674 675 679 681 683 684 686 687 687 689 695 696 698 699 699 701 703 706 711 715 719 724 726 729 732 734 736 738 740
744 740 734 733 734 735 730 723 720 717 712 713 709 702 701 698 690 690 686 683 679 678 671 666 663 666 669 671 675 678 679 683 685 686 690 691 690 693 697 698 700 702 704 706 711 716 721 724 727 729 732 734 737 739
738 734 735 731 728 723 718 717 713 710 705 707 703 696 696 691 687 685 684 682 678 675 671 667 663 664 668 671 672 675 679 683 687 689 689 689 690 691 693 696 699 702 704 707 710 714 718 722 725 727 730 733 735 737
729 726 724 716 718 712 706 705 703 701 700 700 699 697 694 690 684 680 679 678 675 672 671 670 668 664 668 669 674 677 678 678 680 683 684 685 685 686 690 694 697 701 704 707 709 713 717 721 723 726 729 731 733 735
716 719 715 710 707 700 696 695 695 695 695 694 693 692 690 686 679 673 672 672 673 671 670 670 669 669 672 675 678 681 680 678 678 678 679 681 684 686 689 692 695 698 702 705 708 712 715 719 722 725 728 730 732 733
708 707 705 705 701 692 692 691 689 690 689 690 687 686 685 683 680 674 668 669 670 670 669 669 670 672 676 679 678 676 676 677 677 678 679 681 683 687 689 691 694 698 702 704 708 712 715 718 721 724 727 729 731 731
702 700 699 698 693 689 687 687 682 682 684 684 680 679 679 677 672 667 667 668 669 668 668 670 669 671 672 671 671 671 673 676 678 679 680 682 684 686 688 690 694 698 700 704 709 713 716 719 721 724 726 727 729 730